This is the latest recevied weather packets stored in our database for station/object PA1CD-13. If no packets are shown the sender has not sent any weather packets the latest 10 day(s).
| Time | Temp. | Humidity | Pressure | Rain* | Wind** | Luminosity | Snow |
|---|---|---|---|---|---|---|---|
| 1778246105 | 18.33° C | 45% | 1017.4 hPa | 0 mm | - | 192 W/m² | - |
| 1778245985 | 18.33° C | 46% | 1017.4 hPa | 0 mm | - | 192 W/m² | - |
| 1778245864 | 18.33° C | 43% | 1017.4 hPa | 0 mm | - | 923 W/m² | - |
| 1778245745 | 18.33° C | 43% | 1017.3 hPa | 0 mm | - | 816 W/m² | - |
| 1778245624 | 18.33° C | 44% | 1017.4 hPa | 0 mm | - | 241 W/m² | - |
| 1778245504 | 18.33° C | 43% | 1017.4 hPa | 0 mm | - | 259 W/m² | - |
| 1778245385 | 18.33° C | 43% | 1017.4 hPa | 0 mm | - | 884 W/m² | - |
| 1778245262 | 18.33° C | 45% | 1017.4 hPa | 0 mm | - | 883 W/m² | - |
| 1778245143 | 18.33° C | 43% | 1017.5 hPa | 0 mm | - | 557 W/m² | - |
| 1778245022 | 18.33° C | 47% | 1017.4 hPa | 0 mm | - | 942 W/m² | - |
| 1778244903 | 18.33° C | 47% | 1017.5 hPa | 0 mm | - | 942 W/m² | - |
| 1778244783 | 18.33° C | 45% | 1017.5 hPa | 0 mm | - | 942 W/m² | - |
| 1778244662 | 18.33° C | 44% | 1017.5 hPa | 0 mm | - | 209 W/m² | - |
| 1778244542 | 18.33° C | 44% | 1017.5 hPa | 0 mm | - | 209 W/m² | - |
| 1778244422 | 18.33° C | 46% | 1017.5 hPa | 0 mm | - | 543 W/m² | - |
| 1778244305 | 18.33° C | 46% | 1017.6 hPa | 0 mm | - | 918 W/m² | - |
| 1778244182 | 18.33° C | 46% | 1017.5 hPa | 0 mm | - | 918 W/m² | - |
| 1778244064 | 18.33° C | 44% | 1017.6 hPa | 0 mm | - | 886 W/m² | - |
| 1778243943 | 18.33° C | 45% | 1017.6 hPa | 0 mm | - | 274 W/m² | - |
| 1778243822 | 18.33° C | 45% | 1017.6 hPa | 0 mm | - | 301 W/m² | - |
| 1778243702 | 18.33° C | 45% | 1017.7 hPa | 0 mm | - | 913 W/m² | - |
| 1778243582 | 18.33° C | 45% | 1017.6 hPa | 0 mm | - | 913 W/m² | - |
| 1778243462 | 18.33° C | 46% | 1017.6 hPa | 0 mm | - | 260 W/m² | - |
| 1778243342 | 18.33° C | 46% | 1017.6 hPa | 0 mm | - | 923 W/m² | - |
| 1778243222 | 17.78° C | 49% | 1017.6 hPa | 0 mm | - | 916 W/m² | - |
* Rain latest hour (hover to see other rain measurements)
** Current wind speed in m/s (hover to see current wind gust speed)